OBJECT G, 62615

Orbit data source: Space-Track

You're viewing an uncataloged RSO

Recently launched and/or uncataloged RSOs may have evolving metadata. Metadata may include the following, but is not limited to: Owner, Manufacturer, Bus, Motor, and Mission.

OBJECT G, 62615 is a satellite in SSO that was launched on Tue, 14 Jan 2025 UTC via an FALCON 9 launch vehicle from the Air Force Western Test Range (AFWTR). Unknown objects in Earth's orbit typically refer to objects detected orbiting the Earth but have not yet been identified or cataloged. These objects could be anything from previously untracked satellites, spent rocket stages, debris from satellite collisions, or even natural meteoroids temporarily captured by Earth's gravity.

Loading next visibility...
Identifier
62615, 2025-009G
Orbit
SSO
Country
Flag of TBDTBD
Related business
None
Manufacturer
Unknown
Mission
Operational Commercial Weather
Bus & Motor
Unknown
Mass
Unknown
Launch date (UTC)
2025-01-14 (2 years ago)
Launch vehicle
FALCON 9
Launch site
Air Force Western Test Range (AFWTR)
Object type
Unknown
Shape & HBR
Box, 0.4 m
Radar Cross Section
0.015 m², Medium (>0.1 m² and < 1m²)

Expand to show TLE details & history
Last TLE update: 8 hours ago

TLE from 8 hours ago
0 OBJECT G
1 62615U 25009G   26238.49859372  .00006055  00000-0  23416-3 0  9999
2 62615  97.3910 317.7086 0007722  83.7494 276.4624 15.26559365 89528
Epoch: 2026-08-26T11:57Z
TLE epoch observation values (Epoch: 2026-08-26T11:57:58.497Z)
Latitude
-0.00003°
Longitude
163.46414°
Altitude
488.614 km
Speed
7.621 km/s
True Right ascension
21h 10m 50s
True Declination
0° 00' 00"
Sunlit
Object was in full shadow at epoch
Visualization orbit readout
Latitude
Unknown
Longitude
Unknown
Altitude
Unknown
Speed
Unknown
Apparent Right ascension
Unknown
Apparent Declination
Unknown
Sunlit
N/A
Visualization observer readout
Local Sidereal Time
11:20:58
Azimuth
Unknown
Elevation
Unknown
Doppler factor
Unknown
Orbital elements
Apogee altitude
488.362 km
Perigee altitude
477.765 km
Semi-major axis
6,861.2 km
Eccentricity
0.00077
Inclination
97.391°
RAAN
317.7086°
Arg. of periapsis
83.7494°
True anomaly
276.37447°
Mean anomaly
276.4624°
Eccentric anomaly
276.41843°
Mean motion
3.81894 °/min
Orbital period
94.27 mins
BSTAR
0.00023416
Loading maneuver chart data...
Computing Atmospheric mass density...
Loading historical data...
Loading historical data...
Loading historical data...
Loading historical data...
Loading historical data...
Loading historical data...
Loading historical data...

Documentation

Showing up to 5 results
|